Location: Home
(42.5358°N, 72.7383°W)
Time: 10:55:16
(UTC-04:00)

A-11 Canister half - Visible Passes

Search period start: 26 June 2022 00:00
Search period end: 06 July 2022 00:00
Orbit: 1513 x 1687 km, 47.2° (Epoch: 25 June)

Date Brightness Start Highest point End Pass type
(mag) Time Alt. Az. Time Alt. Az. Time Alt. Az.
26 Jun 9.1 01:21:52 10° WSW 01:32:04 83° NNW 01:42:00 10° ENE visible
26 Jun 9.4 03:27:50 10° W 03:37:51 68° N 03:47:30 10° E visible
26 Jun 10.5 20:59:18 10° SE 21:01:23 11° ESE 21:03:29 10° ESE visible
26 Jun 9.3 22:55:03 10° SSW 23:04:29 45° SE 23:13:46 10° ENE visible
27 Jun 9.1 00:58:52 10° WSW 01:09:05 86° NNW 01:19:03 10° ENE visible
27 Jun 9.4 03:04:49 10° W 03:14:51 67° N 03:24:32 10° E visible
27 Jun 9.4 22:32:17 10° SSW 22:41:35 42° SE 22:50:46 10° ENE visible
28 Jun 9.1 00:35:53 10° WSW 00:46:07 88° NNW 00:56:06 10° ENE visible
28 Jun 9.4 02:41:48 10° W 02:51:51 67° N 03:01:34 10° E visible
28 Jun 9.4 22:09:31 10° SSW 22:18:41 40° SE 22:27:45 10° ENE visible
29 Jun 9.1 00:12:54 10° WSW 00:23:08 90° SE 00:33:09 10° ENE visible
29 Jun 9.4 02:18:45 10° W 02:28:50 67° N 02:38:35 10° E visible
29 Jun 9.2 04:24:30 10° WNW 04:34:32 88° NNE 04:44:09 10° ESE visible
29 Jun 9.5 21:46:47 10° SSW 21:55:48 38° SE 22:04:44 10° ENE visible
29 Jun 9.1 23:49:55 10° WSW 00:00:09 87° SSE 00:10:12 10° ENE visible
30 Jun 9.4 01:55:43 10° W 02:05:50 68° N 02:15:37 10° E visible
30 Jun 9.2 04:01:31 10° WNW 04:11:34 86° NNE 04:21:13 10° ESE visible
30 Jun 9.6 21:24:03 10° SSW 21:32:55 36° SE 21:41:43 10° ENE visible
30 Jun 9.0 23:26:57 10° WSW 23:37:11 85° SSE 23:47:15 10° ENE visible
01 Jul 9.4 01:32:41 10° W 01:42:49 68° N 01:52:39 10° E visible
01 Jul 9.2 03:38:31 10° WNW 03:48:36 84° NNE 03:58:18 10° ESE visible
01 Jul 9.7 21:01:22 10° S 21:10:02 33° SE 21:18:39 10° ENE visible
01 Jul 9.0 23:04:00 10° WSW 23:14:13 82° SSE 23:24:17 10° ENE visible
02 Jul 9.4 01:09:39 10° W 01:19:48 68° N 01:29:40 10° ENE visible
02 Jul 9.2 03:15:31 10° WNW 03:25:38 82° NNE 03:35:21 10° ESE visible
02 Jul 9.1 22:41:04 10° SW 22:51:16 79° SSE 23:01:20 10° ENE visible
03 Jul 9.4 00:46:38 10° W 00:56:47 69° N 01:06:42 10° ENE visible
03 Jul 9.2 02:52:30 10° WNW 03:02:39 80° NNE 03:12:24 10° ESE visible
03 Jul 9.1 22:18:08 10° SW 22:28:18 77° SSE 22:38:23 10° ENE visible
04 Jul 9.4 00:23:36 10° W 00:33:46 69° N 00:43:43 10° ENE visible
04 Jul 9.2 02:29:31 10° WNW 02:39:40 78° NNE 02:49:27 10° ESE visible
04 Jul 9.2 04:34:56 10° WNW 04:44:29 54° SW 04:53:40 10° SE visible
04 Jul 9.1 21:55:13 10° SW 22:05:20 74° SSE 22:15:25 10° ENE visible
05 Jul 9.4 00:00:34 10° W 00:10:46 70° N 00:20:45 10° ENE visible
05 Jul 9.2 02:06:31 10° WNW 02:16:41 77° NNE 02:26:30 10° ESE visible
05 Jul 9.1 04:11:56 10° WNW 04:21:35 57° SW 04:30:53 10° SE visible
05 Jul 9.1 21:32:18 10° SW 21:42:23 71° SSE 21:52:27 10° ENE visible
